Waarnemingen

Advertentie
Mijn weer
Menorca/Mahon, Spanje (8314): temperatuur & dauwpunt: 10.01.2018 10:00:00 - 16.01.2018 10:00:00 (CET)Menorca/Mahon, Spanje (8314): windsnelheid: 10.01.2018 10:00:00 - 16.01.2018 10:00:00 (CET)Menorca/Mahon, Spanje (8314): windrichting: 10.01.2018 10:00:00 - 16.01.2018 10:00:00 (CET)Menorca/Mahon, Spanje (8314): luchtdruk: 10.01.2018 10:00:00 - 16.01.2018 10:00:00 (CET)Menorca/Mahon, Spanje (8314): zicht: 10.01.2018 10:00:00 - 16.01.2018 10:00:00 (CET)
Datum & Tijd tt [°C] td [°C] ff [km/u] ff [kn] dd ppp [hPa] vv [km]
16.01.2018 10:00:00 - - - - - - -
16.01.2018 09:00:00 13,3 8,0 28 15 WZW 1023,2 -
16.01.2018 08:00:00 12,6 9,0 31 17 WZW 1022,8 25
16.01.2018 07:00:00 12,4 9,2 34 18 WZW 1022,4 25
16.01.2018 06:00:00 12,3 8,9 34 18 WZW 1022,5 -
16.01.2018 05:00:00 12,1 8,8 34 18 WZW 1023,1 -
16.01.2018 04:00:00 11,7 8,2 28 15 W 1024,1 -
16.01.2018 03:00:00 11,4 7,7 26 14 W 1024,7 -
16.01.2018 02:00:00 10,9 7,7 18 10 W 1025,0 -
16.01.2018 01:00:00 10,4 6,7 18 10 WZW 1025,2 -
16.01.2018 00:00:00 11,1 5,8 18 10 W 1026,0 -
15.01.2018 23:00:00 11,4 5,9 22 12 WZW 1025,7 -
15.01.2018 22:00:00 11,3 5,8 21 11 W 1025,5 15
15.01.2018 21:00:00 11,0 7,1 18 10 ZW 1025,2 -
15.01.2018 20:00:00 9,3 6,9 9 5 WZW 1024,9 -
15.01.2018 19:00:00 7,6 4,9 5 3 W 1024,9 15
15.01.2018 18:00:00 10,4 6,5 5 3 WNW 1024,8 -
15.01.2018 17:00:00 13,4 7,4 11 6 W 1024,2 -
15.01.2018 16:00:00 14,4 7,9 13 7 W 1023,7 25
15.01.2018 15:00:00 15,7 8,9 9 5 W 1023,5 -
15.01.2018 14:00:00 13,1 8,1 9 5 NNO 1023,9 25
15.01.2018 13:00:00 13,3 7,6 5 3 NNO 1024,5 25
15.01.2018 12:00:00 13,4 7,9 5 3 NO 1025,0 -
15.01.2018 11:00:00 13,5 8,2 8 4 NNO 1024,9 -
15.01.2018 10:00:00 12,4 8,7 8 4 N 1024,2 25
15.01.2018 09:00:00 9,6 8,0 9 5 N 1023,8 -
15.01.2018 08:00:00 6,2 4,7 9 5 N 1023,1 20
15.01.2018 07:00:00 6,6 4,8 9 5 NNW 1022,2 15
15.01.2018 06:00:00 7,1 5,1 13 7 NNW 1021,5 -
15.01.2018 05:00:00 7,2 4,8 13 7 NNW 1021,2 -
15.01.2018 04:00:00 7,3 4,9 9 5 NNW 1021,4 -
15.01.2018 03:00:00 7,1 4,7 11 6 NNW 1021,2 -
15.01.2018 02:00:00 7,2 4,8 5 3 NW 1021,3 -
15.01.2018 01:00:00 7,8 5,3 5 3 NW 1021,2 -
15.01.2018 00:00:00 8,2 5,7 5 3 NW 1021,2 -
14.01.2018 23:00:00 8,9 5,6 8 4 NW 1020,6 -
14.01.2018 22:00:00 9,5 6,0 8 4 NW 1020,4 23
14.01.2018 21:00:00 9,6 6,1 4 2 NW 1019,7 -
14.01.2018 20:00:00 10,1 6,4 4 2 NW 1019,2 -
14.01.2018 19:00:00 10,3 6,8 0 0 N 1018,3 25
14.01.2018 18:00:00 10,2 6,2 2 1 NNW 1017,9 -
14.01.2018 17:00:00 11,6 6,3 8 4 NW 1017,5 -
14.01.2018 16:00:00 13,2 5,8 13 7 WNW 1016,7 25
14.01.2018 15:00:00 13,6 6,1 18 10 W 1016,8 -
14.01.2018 14:00:00 14,4 6,7 18 10 WNW 1016,2 23
14.01.2018 13:00:00 14,2 7,3 18 10 WNW 1016,4 23
14.01.2018 12:00:00 13,4 8,5 18 10 W 1016,9 -
14.01.2018 11:00:00 13,9 8,3 22 12 WZW 1017,2 -
14.01.2018 10:00:00 10,8 8,4 15 8 ZW 1016,7 20
14.01.2018 09:00:00 12,7 7,2 16 9 ZW 1016,1 -
14.01.2018 08:00:00 11,3 6,6 15 8 ZW 1015,9 25
14.01.2018 07:00:00 11,3 7,2 15 8 ZZW 1015,8 30
14.01.2018 06:00:00 11,5 6,8 16 9 Z 1015,9 -
14.01.2018 05:00:00 10,9 6,2 16 9 Z 1016,2 -
14.01.2018 04:00:00 10,4 6,2 15 8 ZZW 1017,0 -
14.01.2018 03:00:00 10,0 5,8 15 8 Z 1017,2 -
14.01.2018 02:00:00 10,0 6,0 13 7 ZZW 1017,7 -
14.01.2018 01:00:00 9,4 5,4 5 3 ZZW 1018,4 -
14.01.2018 00:00:00 9,8 6,3 8 4 Z 1019,1 -
13.01.2018 23:00:00 10,5 6,8 11 6 Z 1019,2 -
13.01.2018 22:00:00 10,8 6,9 11 6 Z 1019,7 30
13.01.2018 21:00:00 10,5 7,0 8 4 Z 1019,7 -
13.01.2018 20:00:00 10,0 6,7 8 4 Z 1019,8 -
13.01.2018 19:00:00 10,2 6,3 8 4 ZZO 1019,5 30
13.01.2018 18:00:00 10,4 6,3 8 4 Z 1020,0 -
13.01.2018 17:00:00 11,5 7,0 5 3 ZZW 1020,2 -
13.01.2018 16:00:00 12,4 7,2 8 4 ZZW 1020,4 30
13.01.2018 15:00:00 13,3 7,3 8 4 Z 1020,5 -
13.01.2018 14:00:00 14,6 7,8 8 4 Z 1020,9 30
13.01.2018 13:00:00 14,9 7,7 9 5 Z 1021,6 30
13.01.2018 12:00:00 14,5 7,6 9 5 Z 1022,6 -
13.01.2018 11:00:00 14,2 8,0 4 2 OZO 1022,8 -
13.01.2018 10:00:00 12,5 8,9 0 0 N 1022,6 30
13.01.2018 09:00:00 7,3 5,9 4 2 N 1022,4 -
13.01.2018 08:00:00 4,8 3,5 9 5 N 1022,1 30
13.01.2018 07:00:00 5,5 3,8 13 7 N 1022,1 20
13.01.2018 06:00:00 5,8 3,8 15 8 N 1022,0 -
13.01.2018 05:00:00 6,3 4,6 13 7 NNW 1022,1 -
13.01.2018 04:00:00 6,3 4,5 11 6 NW 1022,6 -
13.01.2018 03:00:00 6,7 4,9 9 5 NNW 1022,8 -
13.01.2018 02:00:00 6,0 4,2 9 5 NW 1023,1 -
13.01.2018 01:00:00 6,2 4,4 8 4 NW 1023,3 -
13.01.2018 00:00:00 6,4 4,7 9 5 NW 1023,7 -
12.01.2018 23:00:00 6,6 4,8 5 3 NW 1023,8 -
12.01.2018 22:00:00 7,2 5,2 8 4 NW 1023,6 20
12.01.2018 21:00:00 8,0 6,0 9 5 NW 1023,5 -
12.01.2018 20:00:00 7,3 5,4 13 7 N 1022,9 -
12.01.2018 19:00:00 7,7 5,8 13 7 N 1022,4 20
12.01.2018 18:00:00 8,4 6,0 22 12 N 1021,9 -
12.01.2018 17:00:00 11,2 6,1 16 9 N 1021,8 -
12.01.2018 16:00:00 13,3 5,5 24 13 N 1021,2 22
12.01.2018 15:00:00 13,1 4,8 34 18 N 1020,6 -
12.01.2018 14:00:00 13,3 4,9 39 21 N 1020,5 21
12.01.2018 13:00:00 13,3 3,6 39 21 N 1020,7 21
12.01.2018 12:00:00 13,4 5,7 39 21 N 1021,3 -
12.01.2018 11:00:00 12,7 5,8 29 16 N 1021,9 -
12.01.2018 10:00:00 11,9 5,4 26 14 N 1021,2 20
12.01.2018 09:00:00 10,5 4,2 29 16 N 1020,4 -
12.01.2018 08:00:00 9,9 4,6 28 15 N 1020,0 22
12.01.2018 07:00:00 10,0 5,0 29 16 N 1019,3 22
12.01.2018 06:00:00 9,9 5,3 29 16 N 1018,8 -
12.01.2018 05:00:00 9,9 4,7 29 16 N 1018,2 -
12.01.2018 04:00:00 9,8 5,5 22 12 N 1018,1 -
12.01.2018 03:00:00 9,6 5,4 18 10 N 1018,2 -
12.01.2018 02:00:00 9,5 5,1 16 9 NNW 1017,9 -
12.01.2018 01:00:00 9,6 5,8 18 10 NNW 1017,5 -
12.01.2018 00:00:00 9,7 6,1 16 9 NNW 1017,6 -
11.01.2018 23:00:00 9,6 6,5 15 8 N 1017,1 -
11.01.2018 22:00:00 9,2 6,6 18 10 N 1016,9 20
11.01.2018 21:00:00 9,0 6,8 16 9 N 1016,4 -
11.01.2018 20:00:00 7,3 5,7 9 5 WNW 1016,1 -
11.01.2018 19:00:00 7,6 6,1 11 6 N 1015,7 15
11.01.2018 18:00:00 8,1 5,9 16 9 N 1015,4 -
11.01.2018 17:00:00 8,3 6,1 22 12 N 1015,4 -
11.01.2018 16:00:00 9,1 6,9 29 16 N 1015,1 12
11.01.2018 15:00:00 8,1 6,9 18 10 NNW 1015,0 -
11.01.2018 14:00:00 8,4 7,0 9 5 WNW 1014,8 15
11.01.2018 13:00:00 7,9 6,5 18 10 NW 1015,1 12
11.01.2018 12:00:00 8,1 7,2 15 8 N 1015,2 -
11.01.2018 11:00:00 7,2 6,0 18 10 NW 1016,0 -
11.01.2018 10:00:00 8,1 7,3 22 12 W 1014,8 12
11.01.2018 09:00:00 8,6 7,7 13 7 NNW 1013,7 -
11.01.2018 08:00:00 8,9 7,8 16 9 N 1012,9 15
11.01.2018 07:00:00 9,8 7,8 16 9 NNW 1012,5 15
11.01.2018 06:00:00 9,9 7,7 21 11 WNW 1012,2 -
11.01.2018 05:00:00 10,0 7,4 24 13 WNW 1012,7 -
11.01.2018 04:00:00 11,8 8,6 15 8 W 1011,9 -
11.01.2018 03:00:00 11,5 9,4 11 6 W 1012,9 -
11.01.2018 02:00:00 12,1 9,5 16 9 W 1013,4 -
11.01.2018 01:00:00 12,3 8,6 16 9 WZW 1014,3 -
11.01.2018 00:00:00 11,9 7,4 15 8 W 1014,6 -
10.01.2018 23:00:00 12,2 8,1 18 10 W 1014,8 -
10.01.2018 22:00:00 11,1 8,1 13 7 W 1015,2 15
10.01.2018 21:00:00 10,7 8,4 11 6 WNW 1015,5 -
10.01.2018 20:00:00 10,5 8,8 9 5 WNW 1015,3 -
10.01.2018 19:00:00 11,3 9,7 5 3 WNW 1015,3 15
10.01.2018 18:00:00 12,0 10,1 0 0 N 1014,9 -
10.01.2018 17:00:00 12,5 9,9 9 5 WZW 1014,9 -
10.01.2018 16:00:00 13,5 9,7 4 2 W 1014,7 20
10.01.2018 15:00:00 13,9 9,1 5 3 W 1014,5 -
10.01.2018 14:00:00 13,7 9,5 11 6 WNW 1015,1 17
10.01.2018 13:00:00 14,5 9,7 9 5 W 1015,8 18
10.01.2018 12:00:00 13,7 9,7 13 7 W 1017,0 -
10.01.2018 11:00:00 13,6 9,0 16 9 W 1017,4 -
10.01.2018 10:00:00 13,5 9,5 16 9 WZW 1017,2 18

tt = temperatuur
td = dauwpunt
ff = windsnelheid
dd = windrichting
ppp = luchtdruk
vv = zicht

Weerstations in de omgeving